TimePST,TemperatureF,Dew PointF,Humidity,Sea Level PressureIn,VisibilityMPH,Wind Direction,Wind SpeedMPH,Gust SpeedMPH,PrecipitationIn,Events,Conditions,WindDirDegrees,DateUTC
12:56 AM,45.0,30.9,58,30.01,10.0,West,5.8,-,N/A,,Overcast,280,2012-12-30 08:56:00
1:56 AM,46.0,34.0,63,30.00,-9999.0,SW,4.6,-,N/A,,Scattered Clouds,230,2012-12-30 09:56:00
2:56 AM,43.0,36.0,76,29.99,10.0,Calm,Calm,-,N/A,,Clear,0,2012-12-30 10:56:00
3:56 AM,44.1,36.0,73,29.98,-9999.0,West,5.8,-,N/A,,Clear,280,2012-12-30 11:56:00
4:56 AM,41.0,33.1,73,29.98,-9999.0,WNW,3.5,-,N/A,,Clear,290,2012-12-30 12:56:00
5:56 AM,43.0,35.1,74,29.99,-9999.0,West,5.8,-,N/A,,Clear,260,2012-12-30 13:56:00
6:56 AM,39.9,34.0,79,29.99,-9999.0,SW,4.6,-,N/A,,Clear,220,2012-12-30 14:56:00
7:56 AM,43.0,35.1,74,30.01,-9999.0,SW,3.5,-,N/A,,Clear,230,2012-12-30 15:56:00
8:56 AM,51.1,37.9,61,30.01,10.0,WSW,3.5,-,N/A,,Clear,240,2012-12-30 16:56:00
9:56 AM,55.9,36.0,47,30.02,10.0,West,4.6,-,N/A,,Clear,260,2012-12-30 17:56:00
10:56 AM,59.0,33.1,38,29.99,10.0,WNW,4.6,-,N/A,,Clear,300,2012-12-30 18:56:00
11:56 AM,61.0,32.0,34,29.96,10.0,WNW,9.2,-,N/A,,Clear,300,2012-12-30 19:56:00
12:56 PM,61.0,32.0,34,29.92,10.0,NW,11.5,-,N/A,,Clear,310,2012-12-30 20:56:00
1:56 PM,61.0,30.9,32,29.91,10.0,NNW,4.6,-,N/A,,Clear,340,2012-12-30 21:56:00
2:56 PM,61.0,33.1,35,29.91,10.0,North,4.6,-,N/A,,Mostly Cloudy,10,2012-12-30 22:56:00
3:56 PM,55.0,37.9,53,29.94,10.0,WSW,23.0,34.5,N/A,,Overcast,250,2012-12-30 23:56:00
4:07 PM,53.6,42.8,67,29.89,10.0,SW,13.8,-,0.01,Rain,Rain,230,2012-12-31 00:07:00
4:56 PM,53.1,41.0,64,29.95,10.0,WSW,17.3,25.3,0.02,Rain,Light Rain,240,2012-12-31 00:56:00
5:56 PM,51.1,43.0,74,29.98,10.0,WSW,8.1,-,0.01,,Mostly Cloudy,250,2012-12-31 01:56:00
6:56 PM,51.1,39.9,66,30.00,10.0,WNW,12.7,-,N/A,,Overcast,290,2012-12-31 02:56:00
7:56 PM,51.1,39.9,66,30.03,10.0,NW,15.0,-,N/A,,Overcast,310,2012-12-31 03:56:00
8:56 PM,48.0,43.0,83,30.05,10.0,WNW,10.4,-,0.00,Rain,Light Rain,290,2012-12-31 04:56:00
9:56 PM,48.0,43.0,83,30.06,10.0,SW,6.9,-,0.00,,Overcast,230,2012-12-31 05:56:00
10:56 PM,46.9,43.0,86,30.07,10.0,SW,6.9,-,N/A,,Overcast,230,2012-12-31 06:56:00
11:56 PM,44.1,41.0,89,30.08,-9999.0,West,9.2,-,N/A,,Scattered Clouds,260,2012-12-31 07:56:00